Regional Weather Roundup
Issued by NWS

Home | Current Version | Previous Version | Graphics & Text | Print | Product List | Glossary Off
Versions: 1 2 3 4 5 6 7 8 9 10 11 12 13 14 15 16 17 18 19 20 21 22 23 24 25 26 27 28 29 30 31 32 33 34 35 36 37 38 39 40 41 42 43 44 45 46 47 48 49 50

000
ASUS43 KMKX 241611
RWRWI

WISCONSIN REGIONAL WEATHER ROUNDUP
NATIONAL WEATHER SERVICE MILWAUKEE/SULLIVAN WI
1100 AM CDT THU APR 24 2014

NOTE: "FAIR" INDICATES FEW OR NO CLOUDS BELOW 12,000 FEET WITH NO
SIGNIFICANT WEATHER AND/OR OBSTRUCTIONS TO VISIBILITY.

WIZ001-002-006>008-014>016-023>028-241700-
NORTHWEST WISCONSIN

CITY           SKY/WX    TMP DP  RH WIND       PRES   REMARKS
SUPERIOR ARPT  LGT RAIN  34  34  98 NE9       29.91S WCI  27
ASHLAND        LGT RAIN  37  34  89 E7        29.95S WCI  32
HAYWARD        LGT RAIN  37  34  89 E10G17    29.86F FOG     WCI  30
SIREN          LGT RAIN  39  38  97 E5        29.83F
RICE LAKE      LGT RAIN  39  37  93 E10       29.84F WCI  33
LADYSMITH      LGT RAIN  38  36  91 E15G22    29.87F WCI  30
EAU CLAIRE     LGT RAIN  41  39  93 SE15G24   29.80S
MENOMONIE      LGT RAIN  40  40  99 E14G20    29.80F WCI  33
NEW RICHMOND   RAIN      39  39  98 E10       29.78F WCI  32
OSCEOLA        RAIN      40  40  98 E12       29.81F WCI  33
$$

WIZ003>005-009-010-017-018-241700-
NORTH CENTRAL WISCONSIN

CITY           SKY/WX    TMP DP  RH WIND       PRES   REMARKS
WOODRUFF       LGT SNOW  37  33  87 SE10      29.95F WCI  29
RHINELANDER    LGT SNOW  32  30  92 E14       29.96F FOG     WCI  22
EAGLE RIVER    LGT SNOW  34  29  84 SE12      29.97F WCI  25
LAND O LAKES   LGT SNOW  37  29  75 SE12G23   29.98F WCI  29
PHILLIPS       FLURRIES  34  31  90 E13       29.90F WCI  25
TOMAHAWK       LGT RAIN  34  32  92 E8        29.93F WCI  27
MEDFORD        LGT RAIN  36  34  94 E14G22    29.87F WCI  27
MERRILL        LGT RAIN  37  35  94 SE13G18   29.93F WCI  28
$$

WIZ029-030-035-036-043>047-241700-
CENTRAL WISCONSIN

CITY           SKY/WX    TMP DP  RH WIND       PRES   REMARKS
WAUSAU         MIX PCPN  37  34  89 E17       29.91F FOG     WCI  27
MOSINEE        LGT RAIN  36  36 100 E13G20    29.92F WCI  27
MARSHFIELD     LGT RAIN  39  36  89 SE16G24   29.87F FOG     WCI  30
STEVENS POINT  RAIN      36  35  95 E15G21    29.93F WCI  27
WAUPACA        LGT RAIN  43  39  87 E14G22    29.96F
WAUTOMA        LGT RAIN  42  39  89 E9        29.93F
WISC RAPIDS    LGT RAIN  40  38  93 SE13G21   29.91F WCI  32
CAMP DOUGLAS   LGT RAIN  41  41 100 E20       29.84F FOG
$$

WIZ011>013-019>022-031-037>040-048>050-241700-
NORTHEAST WISCONSIN

CITY           SKY/WX    TMP DP  RH WIND       PRES   REMARKS
ANTIGO         LGT SNOW  32  32  99 E12       29.97F WCI  23
STURGEON BAY   CLOUDY    39  30  70 SE7       30.06F WCI  34
GREEN BAY      LGT RAIN  41  38  89 E8        30.02F FOG
MANITOWOC      LGT RAIN  39  37  92 E14       30.02F WCI  31
APPLETON       LGT RAIN  39  39 100 E10       30.01S FOG     WCI  32
CLINTONVILLE   LGT RAIN  37  36  93 E5        30.01F WCI  34
OSHKOSH        CLOUDY    43  37  79 E9        29.96F
$$

WIZ032>034-041-042-053>061-241700-
SOUTHWEST WISCONSIN

CITY           SKY/WX    TMP DP  RH WIND       PRES   REMARKS
LA CROSSE      LGT RAIN  43  40  89 SE12      29.80F
SPARTA         LGT RAIN  40  39  95 E12       29.83F WCI  34
VIROQUA        CLOUDY    40  40  98 SE18G29   29.78F WCI  31
BOSCOBEL       LGT RAIN  46  40  79 NE5       29.80F
PRAIRIE DU CHI CLOUDY    46  38  74 E6        29.77R
PLATTEVILLE    CLOUDY    51  41  67 SE17G25   29.78F
$$

WIZ056-057-062-063-064-067-068-241700-
SOUTH CENTRAL WISCONSIN

CITY           SKY/WX    TMP DP  RH WIND       PRES   REMARKS
BARABOO/DELLS  CLOUDY    41  37  84 E12       29.86F
LONE ROCK      LGT RAIN  46  39  76 E16       29.83F
WATERTOWN      CLOUDY    45  36  71 E10       29.91F
MADISON        CLOUDY    46  37  71 E17G26    29.87F
MIDDLETON      CLOUDY    47  37  66 E18G25    29.85F
MONROE         CLOUDY    52  38  57 SE16G26   29.83F
JANESVILLE     CLOUDY    55  37  50 SE16G23   29.88F
$$

WIZ051-052-058>065-066-070>072-241700-
SOUTHEAST WISCONSIN

CITY           SKY/WX    TMP DP  RH WIND       PRES   REMARKS
MILWAUKEE      CLOUDY    47  35  63 SE20G26   29.98S
WAUKESHA       CLOUDY    46  36  66 E12G17    29.96F
MILWAUKEE/TIMM NOT AVBL
RACINE         CLOUDY    48  36  63 SE17G26   29.99R
BURLINGTON     CLOUDY    52  37  55 SE15G21   29.92F
KENOSHA        CLOUDY    52  36  54 SE20G28   29.95F
FOND DU LAC    CLOUDY    45  36  70 SE12      29.96F
SHEBOYGAN      LGT RAIN  41  35  79 E12       30.00F
WEST BEND      CLOUDY    41  34  75 E10G16    29.97F
JUNEAU         CLOUDY    42  33  70 E14G22    29.94F
$$

LSZ147-162-241700-
LAKE SUPERIOR

STATION/POSITION TIME  TEMP    WIND        PRES    WAVE
                       AIR SEA DIR/SP/G            HT/PER
                 (UTC) (F)     (DEG/KT/KT) (MB)    (FT/S)
DEVILS ISLAND    1500   37     100/ 19/ 21 1015.7F
PORT WING        1540   39      70/  5/  7 1013.5F
SAXON HARBOR     1500           CALM  /  5 1014.2F
$$

LMZ867-665-643>646-241700-
LAKE MICHIGAN

STATION/POSITION TIME  TEMP    WIND        PRES    WAVE
                       AIR SEA DIR/SP/G            HT/PER
                 (UTC) (F)     (DEG/KT/KT) (MB)    (FT/S)
NORTHPORT PIER   1500   36     120/  3/  4 1019.0R
SISTER BAY       1508   41     140/ 10/ 12   N/A
KEWAUNEE LAKESHO 1500   37     150/  5/  9 1018.7R
SHEBOYGAN LAKESH 1600   40     100/ 19/ 21 1016.3F
PORT WASHINGTON  1500   39      50/  7/  9 1016.9
MILWAUKEE LAKESH 1500   40     110/ 15/ 18   N/A
KENOSHA   LAKESH 1600   42     130/ 14/ 17   N/A
$$

TC  - TEMPERATURE IN CELSIUS
VSB - VISIBILITY IN STATUTE MILES
WCI - WIND CHILL INDEX
HX  - HEAT INDEX




USA.gov is the U.S. government's official web portal to all federal, state and local government web resources and services.